Skip Page Navigation
NASA JPL Caltech
NASA Logo - Jet Propulsion Laboratory + View the NASA Portal
+ Center for Near-Earth Object Studies
JPL Home Earth Solar System Stars & Galaxies Technology
JPL Solar System Dynamics
BODIES ORBITS EPHEMERIDES TOOLS PHYSICAL DATA DISCOVERY FAQ SITE MAP

Significant website upgrade scheduled for September 27. More details available here.

JPL Small-Body Database Browser
Search: [ help ]  
14501 Tetsuokojima (1995 WA8)
Classification: Main-belt Asteroid          SPK-ID: 2014501
Ephemeris | Orbit Diagram | Orbital Elements | Mission Design | Physical Parameters | Discovery Circumstances ]

[ hide orbit diagram ]

For accurate long-term ephemerides, please instead use our Horizons system.This orbit viewer was implemented using two-body methods, and hence should not be used for determining accurate long-term trajectories (over several years or decades) or planetary encounter circumstances.


Orbital Elements at Epoch 2459396.5 (2021-Jul-01.0) TDB
Reference: JPL 30 (heliocentric ecliptic J2000)
 Element Value Uncertainty (1-sigma)   Units 
e .1443532872376465 3.0298e-08  
a 2.205580883870168 6.9618e-09 au
q 1.887198033014995 6.6815e-08 au
i 5.294496295703863 3.8814e-06 deg
node .450673133056926 3.7504e-05 deg
peri 39.53067229519374 4.016e-05 deg
M 318.3568799880523 1.6492e-05 deg
tp 2459534.896042092007
(2021-Nov-16.39604209)
5.5164e-05 TDB
period 1196.417923028538
3.28
5.6646e-06
1.551e-08
d
yr
n .3008982004287585 1.4247e-09 deg/d
Q 2.52396373472534 7.9668e-09 au
  Orbit Determination Parameters
   # obs. used (total)      1302  
   data-arc span      12046 days (32.98 yr)  
   first obs. used      1988-08-16  
   last obs. used      2021-08-09  
   planetary ephem.      DE441  
   SB-pert. ephem.      SB441-N16  
   condition code      0  
   norm. resid. RMS      .50017  
   source      ORB  
   producer      Otto Matic  
   solution date      2021-Aug-24 21:16:06  

Additional Information
 Earth MOID = .89734 au 
 Jupiter MOID = 2.88479 au 
 T_jup = 3.642 
[ show covariance matrix ]

Ephemeris | Orbit Diagram | Orbital Elements | Mission Design | Physical Parameters | Discovery Circumstances ]

Physical Parameter Table
Parameter Symbol Value Units Sigma Reference Notes
absolute magnitude H 15.22   n/a MPO636283  
diameter diameter 2.457 km 0.394 urn:nasa:pds:neowise_diameters_albedos::2.0[mainbelt] (http://adsabs.harvard.edu/abs/2011ApJ...741...68M)  
geometric albedo albedo 0.293   0.148 urn:nasa:pds:neowise_diameters_albedos::2.0[mainbelt] (http://adsabs.harvard.edu/abs/2011ApJ...741...68M)  

14501 Tetsuokojima           Discovered 1995 Nov. 29 by T. Kobayashi at Oizumi.
Tetsuo Kojima (b. 1945) is a Japanese amateur astronomer and an active member of Ota Astronomical Club.
NOTE: some special characters may not display properly (any characters within {} are an attempt to place the proper accent above a character)
Reference: 20060219/MPCPages.arcLast Updated: 2010-06-03
Ephemeris | Orbit Diagram | Orbital Elements | Mission Design | Physical Parameters | Discovery Circumstances ]
ABOUT SSD CREDITS/AWARDS PRIVACY/COPYRIGHT GLOSSARY LINKS
FirstGov 2021-Sep-25 06:53 UT
(server date/time)  
NASA Home Page
Site Manager:   Ryan S. Park
Webmaster  Alan B. Chamberlin